Location: ?????
(44.4284°N, 135.2222°E)
Time: 07:31:44
(UTC+00:00)

Meteor 1-18 Rocket - Pass Details

Date: 19 May 2025
Orbit: 836 x 907 km, 81.2° (Epoch: 23 June)

Event Time Altitude Azimuth Distance (km) Brightness Sun altitude
Exits shadow 14:42:28 68° 172° (S) 949 4.1 -25.6°
Maximum altitude 14:43:14 84° 98° (E) 897 4.2 -25.6°
Drops below altitude 10° 14:49:07 10° 12° (NNE) 2,580 7.7 -25.6°
Sets 14:51:36 0° 12° (NNE) 3,532 8.7 -25.7°
